TimeCDT,TemperatureF,Dew PointF,Humidity,Sea Level PressureIn,VisibilityMPH,Wind Direction,Wind SpeedMPH,Gust SpeedMPH,PrecipitationIn,Events,Conditions,WindDirDegrees,DateUTC
12:15 AM,60.8,46.4,59,29.88,10.0,Calm,Calm,-,N/A,,Clear,0,2013-05-16 05:15:00
12:35 AM,62.6,46.4,55,29.89,10.0,Calm,Calm,-,N/A,,Clear,0,2013-05-16 05:35:00
12:55 AM,60.8,46.4,59,29.89,10.0,Calm,Calm,-,N/A,,Clear,0,2013-05-16 05:55:00
1:15 AM,62.6,46.4,55,29.89,10.0,SSE,5.8,-,N/A,,Clear,160,2013-05-16 06:15:00
1:35 AM,59.0,46.4,63,29.89,10.0,South,3.5,-,N/A,,Clear,170,2013-05-16 06:35:00
1:55 AM,57.2,46.4,67,29.89,10.0,SSE,4.6,-,N/A,,Clear,160,2013-05-16 06:55:00
2:15 AM,59.0,48.2,67,29.88,10.0,SSE,5.8,-,N/A,,Clear,150,2013-05-16 07:15:00
2:35 AM,59.0,46.4,63,29.88,10.0,SSE,8.1,-,N/A,,Clear,150,2013-05-16 07:35:00
2:55 AM,60.8,46.4,59,29.88,10.0,ESE,5.8,-,N/A,,Clear,110,2013-05-16 07:55:00
3:15 AM,60.8,46.4,59,29.88,10.0,East,4.6,-,N/A,,Clear,90,2013-05-16 08:15:00
3:35 AM,60.8,46.4,59,29.87,10.0,Calm,Calm,-,N/A,,Clear,0,2013-05-16 08:35:00
3:55 AM,59.0,46.4,63,29.88,10.0,Calm,Calm,-,N/A,,Clear,0,2013-05-16 08:55:00
4:15 AM,55.4,46.4,72,29.88,10.0,Calm,Calm,-,N/A,,Clear,0,2013-05-16 09:15:00
4:35 AM,55.4,46.4,72,29.88,10.0,Calm,Calm,-,N/A,,Clear,0,2013-05-16 09:35:00
4:55 AM,51.8,46.4,82,29.88,10.0,Calm,Calm,-,N/A,,Clear,0,2013-05-16 09:55:00
5:15 AM,51.8,44.6,76,29.88,10.0,Calm,Calm,-,N/A,,Clear,0,2013-05-16 10:15:00
5:35 AM,51.8,46.4,82,29.89,10.0,Calm,Calm,-,N/A,,Clear,0,2013-05-16 10:35:00
5:55 AM,53.6,46.4,77,29.89,10.0,Calm,Calm,-,N/A,,Clear,0,2013-05-16 10:55:00
6:15 AM,51.8,46.4,82,29.88,10.0,NNE,3.5,-,N/A,,Clear,20,2013-05-16 11:15:00
6:35 AM,51.8,46.4,82,29.89,9.0,Calm,Calm,-,N/A,,Clear,0,2013-05-16 11:35:00
6:55 AM,53.6,46.4,77,29.90,10.0,Calm,Calm,-,N/A,,Clear,0,2013-05-16 11:55:00
7:15 AM,55.4,48.2,77,29.91,10.0,Calm,Calm,-,N/A,,Clear,0,2013-05-16 12:15:00
7:35 AM,59.0,48.2,67,29.91,10.0,Calm,Calm,-,N/A,,Clear,0,2013-05-16 12:35:00
7:55 AM,60.8,48.2,63,29.91,10.0,SE,3.5,-,N/A,,Clear,130,2013-05-16 12:55:00
8:15 AM,64.4,50.0,59,29.91,10.0,ESE,3.5,-,N/A,,Clear,120,2013-05-16 13:15:00
8:35 AM,68.0,48.2,49,29.91,10.0,SE,8.1,-,N/A,,Clear,130,2013-05-16 13:35:00
8:55 AM,69.8,50.0,49,29.91,10.0,ESE,4.6,-,N/A,,Clear,110,2013-05-16 13:55:00
9:15 AM,71.6,48.2,43,29.91,10.0,ESE,3.5,-,N/A,,Clear,120,2013-05-16 14:15:00
9:35 AM,71.6,50.0,46,29.91,10.0,East,5.8,-,N/A,,Clear,100,2013-05-16 14:35:00
9:55 AM,73.4,50.0,44,29.90,10.0,ESE,9.2,-,N/A,,Mostly Cloudy,120,2013-05-16 14:55:00
10:15 AM,75.2,48.2,38,29.90,10.0,East,9.2,-,N/A,,Mostly Cloudy,100,2013-05-16 15:15:00
10:35 AM,77.0,48.2,36,29.89,10.0,East,12.7,-,N/A,,Mostly Cloudy,100,2013-05-16 15:35:00
10:55 AM,77.0,50.0,39,29.89,10.0,ESE,12.7,19.6,N/A,,Mostly Cloudy,120,2013-05-16 15:55:00
11:15 AM,78.8,50.0,36,29.88,10.0,ESE,15.0,20.7,N/A,,Clear,120,2013-05-16 16:15:00
11:35 AM,80.6,46.4,30,29.87,10.0,SE,20.7,26.5,N/A,,Clear,130,2013-05-16 16:35:00
11:55 AM,80.6,50.0,34,29.87,10.0,SE,16.1,24.2,N/A,,Clear,130,2013-05-16 16:55:00
12:15 PM,80.6,50.0,34,29.86,10.0,ESE,19.6,-,N/A,,Clear,120,2013-05-16 17:15:00
12:35 PM,82.4,51.8,35,29.86,10.0,SE,12.7,21.9,N/A,,Clear,140,2013-05-16 17:35:00
12:55 PM,82.4,51.8,35,29.84,10.0,ESE,17.3,-,N/A,,Clear,110,2013-05-16 17:55:00
1:15 PM,82.4,53.6,37,29.84,10.0,ESE,16.1,-,N/A,,Clear,110,2013-05-16 18:15:00
1:35 PM,84.2,53.6,35,29.83,10.0,ESE,13.8,24.2,N/A,,Clear,120,2013-05-16 18:35:00
1:55 PM,84.2,53.6,35,29.82,10.0,ESE,19.6,-,N/A,,Clear,120,2013-05-16 18:55:00
2:15 PM,84.2,51.8,33,29.82,10.0,SSE,16.1,31.1,N/A,,Partly Cloudy,150,2013-05-16 19:15:00
2:35 PM,84.2,53.6,35,29.82,10.0,SE,17.3,24.2,N/A,,Scattered Clouds,140,2013-05-16 19:35:00
2:55 PM,84.2,53.6,35,29.82,10.0,SE,20.7,26.5,N/A,,Mostly Cloudy,140,2013-05-16 19:55:00
3:15 PM,84.2,57.2,40,29.83,10.0,SSE,17.3,27.6,N/A,,Scattered Clouds,160,2013-05-16 20:15:00
3:35 PM,82.4,59.0,45,29.83,10.0,SSE,17.3,24.2,N/A,,Mostly Cloudy,150,2013-05-16 20:35:00
3:55 PM,82.4,59.0,45,29.82,10.0,South,19.6,-,N/A,,Mostly Cloudy,170,2013-05-16 20:55:00
4:15 PM,82.4,57.2,42,29.81,10.0,SSE,15.0,24.2,N/A,,Partly Cloudy,160,2013-05-16 21:15:00
4:35 PM,80.6,57.2,45,29.81,10.0,South,13.8,20.7,N/A,,Clear,170,2013-05-16 21:35:00
5:15 PM,80.6,59.0,48,29.80,10.0,SSE,15.0,20.7,N/A,,Clear,160,2013-05-16 22:15:00
5:35 PM,78.8,59.0,51,29.79,10.0,SSE,16.1,-,N/A,,Clear,150,2013-05-16 22:35:00
5:55 PM,78.8,60.8,54,29.79,10.0,SSE,15.0,21.9,N/A,,Clear,150,2013-05-16 22:55:00
6:15 PM,77.0,60.8,57,29.80,10.0,SSE,11.5,-,N/A,,Clear,160,2013-05-16 23:15:00
6:35 PM,77.0,60.8,57,29.81,10.0,SSE,8.1,13.8,N/A,,Partly Cloudy,160,2013-05-16 23:35:00
6:55 PM,75.2,60.8,61,29.81,9.0,SSE,6.9,-,N/A,,Partly Cloudy,160,2013-05-16 23:55:00
7:15 PM,75.2,60.8,61,29.82,9.0,South,4.6,-,N/A,,Scattered Clouds,180,2013-05-17 00:15:00
7:35 PM,68.0,60.8,78,29.84,10.0,NW,17.3,-,N/A,,Mostly Cloudy,310,2013-05-17 00:35:00
7:55 PM,66.2,62.6,88,29.85,10.0,NNW,13.8,24.2,N/A,Rain,Light Rain,330,2013-05-17 00:55:00
8:15 PM,66.2,64.4,94,29.85,10.0,NNW,11.5,21.9,N/A,Rain,Light Rain,330,2013-05-17 01:15:00
8:35 PM,66.2,64.4,94,29.86,8.0,Calm,Calm,-,N/A,Rain,Light Rain,0,2013-05-17 01:35:00
8:55 PM,66.2,64.4,94,29.85,6.0,East,3.5,-,0.02,Rain,Light Rain,90,2013-05-17 01:55:00
9:15 PM,64.4,64.4,100,29.84,5.0,East,10.4,-,N/A,Rain,Rain,100,2013-05-17 02:15:00
9:35 PM,64.4,64.4,100,29.84,9.0,North,6.9,-,N/A,,Light Drizzle,360,2013-05-17 02:35:00
9:55 PM,64.4,64.4,100,29.85,10.0,North,5.8,-,0.04,,Clear,360,2013-05-17 02:55:00
10:15 PM,64.4,64.4,100,29.85,10.0,ENE,5.8,-,N/A,,Scattered Clouds,60,2013-05-17 03:15:00
10:35 PM,64.4,64.4,100,29.85,10.0,ENE,9.2,-,N/A,,Partly Cloudy,70,2013-05-17 03:35:00
10:55 PM,64.4,64.4,100,29.85,7.0,East,8.1,-,N/A,,Clear,100,2013-05-17 03:55:00
11:15 PM,62.6,62.6,100,29.85,6.0,East,4.6,-,N/A,,Mostly Cloudy,100,2013-05-17 04:15:00
11:35 PM,64.4,64.4,100,29.85,5.0,SE,5.8,-,N/A,,Overcast,140,2013-05-17 04:35:00
11:55 PM,62.6,62.6,100,29.84,4.0,SSE,8.1,-,N/A,,Scattered Clouds,150,2013-05-17 04:55:00